Siemreap, Cambodia

2:12 PM +07 on September 25, 2017 (GMT +0700)
Siem Reap

Weather History for VDSR - March, 2014

Change the Weather History Date:

Saturday, March 22, 2014

  Actual Average Record
Temperature  
Mean Temperature 86 °F -  
Max Temperature 95 °F - - ()
Min Temperature 78 °F - - ()
Cooling Degree Days 22    
Growing Degree Days 36 (Base 50)    
Moisture  
Dew Point 69 °F    
Average Humidity 60    
Maximum Humidity 83    
Minimum Humidity 34    
Precipitation  
Precipitation 0.00 in - - ()
Sea Level Pressure  
Sea Level Pressure 29.79 in    
Wind  
Wind Speed 7 mph ()    
Max Wind Speed 16 mph    
Max Gust Speed -    
Visibility 5.8 miles    
Events Rain    
T = Trace of Precipitation, MM = Missing Value Source: Averaged Metar Reports

Daily Weather History Graph

Daily Weather History Graph

Search for Another Location

Airport or City:

Trip Planner

Search our weather history database for the weather conditions in past years. The results will help you decide how hot, cold, wet, or windy it might be!

Date:

Astronomy

Mar. 22, 2014 Rise Set
Actual Time 6:07 AM +07 6:15 PM +07
Civil Twilight 5:46 AM +07 6:36 PM +07
Nautical Twilight 5:21 AM +07 7:01 PM +07
Astronomical Twilight 4:57 AM +07 7:26 PM +07
Moon 11:15 PM +07 (3/22) 10:08 AM +07 (3/22)
Length of Visible Light 12h 50m
Length of Day
12h 07m
Waning Gibbous, 70% of the Moon is Illuminated
Mar 22
Waning Gibbous
Mar 24
Last Quarter
Mar 31
New
Apr 7
First Quarter
Apr 15
Full

Hourly Weather History & Observations

Time (+07) Temp. Heat Index Dew Point Humidity Pressure Visibility Wind Dir Wind Speed Gust Speed Precip Events Conditions
12:00 AM 82.4 °F 88.2 °F 73.4 °F 74% 29.74 in 5.0 mi ENE 3.5 mph - N/A   Unknown
12:30 AM 82.4 °F 88.2 °F 73.4 °F 74% 29.74 in 5.0 mi ESE 3.5 mph - N/A   Unknown
1:00 AM 82.4 °F 89.5 °F 75.2 °F 79% 29.74 in - North - - N/A   Unknown
7:00 AM 78.8 °F - 73.4 °F 83% 29.83 in 4.3 mi East 5.8 mph - N/A   Scattered Clouds
7:30 AM 78.8 °F - 73.4 °F 83% 29.83 in 4.3 mi East 5.8 mph - N/A   Scattered Clouds
8:00 AM 82.4 °F 87.2 °F 71.6 °F 70% 29.83 in 5.6 mi ESE 10.4 mph - N/A   Scattered Clouds
8:30 AM 82.4 °F 87.2 °F 71.6 °F 70% 29.86 in 5.6 mi ESE 16.1 mph - N/A   Scattered Clouds
9:00 AM 82.4 °F 85.4 °F 68.0 °F 62% 29.86 in 6.2 mi SSE 12.7 mph - N/A   Scattered Clouds
9:30 AM 86.0 °F 89.4 °F 68.0 °F 55% 29.86 in 6.2 mi SE 10.4 mph - N/A   Scattered Clouds
10:00 AM 86.0 °F 88.2 °F 66.2 °F 51% 29.86 in 6.2 mi SE 11.5 mph - N/A   Scattered Clouds
12:00 PM 89.6 °F 92.2 °F 66.2 °F 46% 29.83 in 6.2 mi ENE 10.4 mph - N/A   Scattered Clouds
12:30 PM 89.6 °F 92.2 °F 66.2 °F 46% 29.80 in 6.2 mi ENE 11.5 mph - N/A   Scattered Clouds
1:00 PM 91.4 °F 92.1 °F 62.6 °F 38% 29.80 in 6.2 mi East 11.5 mph - N/A   Scattered Clouds
1:30 PM 95.0 °F 96.0 °F 62.6 °F 34% 29.77 in 6.2 mi SE 10.4 mph - N/A   Scattered Clouds
2:00 PM 95.0 °F 96.0 °F 62.6 °F 34% 29.74 in 6.2 mi East 8.1 mph - N/A   Scattered Clouds
2:30 PM 93.2 °F 94.1 °F 62.6 °F 36% 29.74 in 6.2 mi ESE 6.9 mph - N/A   Scattered Clouds
3:00 PM 93.2 °F 94.1 °F 62.6 °F 36% 29.74 in 6.2 mi ESE 6.9 mph - N/A   Scattered Clouds
3:30 PM 93.2 °F 94.1 °F 62.6 °F 36% 29.74 in 6.2 mi South 11.5 mph - N/A   Scattered Clouds
4:00 PM 91.4 °F 95.4 °F 68.0 °F 46% 29.74 in 6.2 mi SW 11.5 mph - N/A   Scattered Clouds
4:30 PM 87.8 °F 91.4 °F 68.0 °F 52% 29.71 in 6.2 mi South 11.5 mph - N/A   Scattered Clouds
5:00 PM 87.8 °F 91.4 °F 68.0 °F 52% 29.74 in 6.2 mi SSW 9.2 mph - N/A   Scattered Clouds
5:30 PM 87.8 °F 91.4 °F 68.0 °F 52% 29.74 in 6.2 mi SSW 9.2 mph - N/A   Scattered Clouds
6:00 PM 87.8 °F 91.4 °F 68.0 °F 52% 29.74 in 6.2 mi SSW 9.2 mph - N/A   Scattered Clouds
6:30 PM 84.2 °F 89.6 °F 71.6 °F 66% 29.74 in 6.2 mi SW 2.3 mph - N/A   Scattered Clouds
7:00 PM 84.2 °F 90.9 °F 73.4 °F 70% 29.77 in 6.2 mi West 2.3 mph - N/A   Scattered Clouds
7:30 PM 84.2 °F 90.9 °F 73.4 °F 70% 29.77 in 5.6 mi Variable 2.3 mph - N/A   Scattered Clouds
8:00 PM 84.2 °F 90.9 °F 73.4 °F 70% 29.80 in 5.6 mi Variable 3.5 mph - N/A   Partly Cloudy
8:30 PM 84.2 °F 90.9 °F 73.4 °F 70% 29.83 in 5.0 mi NE 5.8 mph - N/A Rain Light Rain
9:00 PM 82.4 °F 88.2 °F 73.4 °F 74% 29.83 in 5.6 mi Variable 3.5 mph - N/A   Partly Cloudy
9:30 PM 82.4 °F 88.2 °F 73.4 °F 74% 29.83 in 5.6 mi NE 4.6 mph - N/A   Partly Cloudy
10:00 PM 80.6 °F 84.6 °F 71.6 °F 74% 29.86 in 5.6 mi ENE 8.1 mph - N/A   Partly Cloudy
10:30 PM 80.6 °F 84.6 °F 71.6 °F 74% 29.86 in 5.6 mi NE 6.9 mph - N/A   Scattered Clouds
11:00 PM 78.8 °F - 71.6 °F 78% 29.83 in 5.6 mi NNE 5.8 mph - N/A   Scattered Clouds
11:30 PM 78.8 °F - 69.8 °F 74% 29.83 in 5.6 mi NE 3.5 mph - N/A   Scattered Clouds